| time (UTC) | temp C | wind direction | speed KPH | gust KPH | rain 1hr cm | rain 24hr cm | rain mn cm | humidity % | barometer mb |
| 20260504120129 | 2 | 190 | 12.9 | 40.2 | 0.00 | 0.00 | 0.00 | 91 | 984.7 |
| 20260504081527 | 2 | 228 | 9.7 | 29.0 | 0.00 | 0.00 | 0.00 | 93 | 974.9 |
| 20260504050001 | 2 | 37 | 12.9 | 22.5 | 0.00 | 0.00 | 0.00 | 93 | 977.0 |
| 20260504044557 | 2 | 50 | 14.5 | 29.0 | 0.00 | 0.00 | 0.00 | 93 | 977.6 |
| 20260504043112 | 3 | 28 | 6.4 | 27.4 | 0.00 | 0.00 | 0.00 | 94 | 978.1 |
| 20260504041552 | 3 | 28 | 11.3 | 30.6 | 0.00 | 0.00 | 0.00 | 93 | 978.4 |
| 20260504040049 | 3 | 38 | 8.0 | 24.1 | 0.00 | 0.00 | 0.00 | 93 | 978.8 |
| 20260504034552 | 3 | 31 | 14.5 | 29.0 | 0.00 | 0.00 | 0.00 | 94 | 979.3 |
| 20260504033044 | 3 | 37 | 16.1 | 30.6 | 0.00 | 0.00 | 0.00 | 94 | 979.9 |
| 20260504031549 | 3 | 19 | 17.7 | 29.0 | 0.00 | 0.00 | 0.00 | 94 | 980.7 |
| 20260504030046 | 3 | 55 | 9.7 | 30.6 | 0.00 | 0.00 | 0.00 | 94 | 981.6 |
| 20260504024536 | 2 | 45 | 12.9 | 32.2 | 0.00 | 0.00 | 0.00 | 93 | 982.5 |
| 20260504023031 | 2 | 18 | 17.7 | 33.8 | 0.00 | 0.00 | 0.00 | 93 | 983.0 |
| 20260504021532 | 2 | 38 | 14.5 | 30.6 | 0.00 | 0.00 | 0.00 | 93 | 983.8 |
| 20260504020035 | 2 | 42 | 14.5 | 33.8 | 0.00 | 0.00 | 0.00 | 93 | 984.8 |
| 20260504014522 | 2 | 23 | 19.3 | 32.2 | 0.00 | 0.00 | 0.00 | 93 | 985.6 |
| 20260504013022 | 2 | 55 | 14.5 | 27.4 | 0.00 | 0.00 | 0.00 | 93 | 987.0 |
| 20260504011515 | 2 | 49 | 8.0 | 29.0 | 0.00 | 0.00 | 0.00 | 93 | 987.7 |
| 20260504010011 | 2 | 20 | 16.1 | 32.2 | 0.00 | 0.00 | 0.00 | 93 | 988.6 |
| 20260504004520 | 2 | 44 | 17.7 | 30.6 | 0.00 | 0.00 | 0.00 | 93 | 989.7 |
| 20260504003003 | 2 | 9 | 19.3 | 32.2 | 0.00 | 0.00 | 0.00 | 93 | 990.7 |
| 20260504001602 | 2 | 22 | 14.5 | 29.0 | 0.00 | 0.00 | 0.00 | 92 | 991.1 |
| 20260504000100 | 2 | 24 | 16.1 | 33.8 | 0.00 | 0.00 | 0.00 | 92 | 991.8 |
| 20260503234552 | 2 | 37 | 17.7 | 29.0 | 0.00 | 0.00 | 0.00 | 92 | 992.8 |
| 20260503233051 | 2 | 39 | 14.5 | 24.1 | 0.00 | 0.00 | 0.00 | 92 | 993.7 |
| 20260503231546 | 2 | 40 | 11.3 | 24.1 | 0.00 | 0.00 | 0.00 | 92 | 994.3 |
| 20260503230104 | 2 | 67 | 8.0 | 24.1 | 0.00 | 0.00 | 0.00 | 91 | 995.0 |
| 20260503224540 | 2 | 20 | 12.9 | 25.7 | 0.00 | 0.00 | 0.00 | 91 | 995.4 |
| 20260503223042 | 2 | 34 | 14.5 | 27.4 | 0.00 | 0.00 | 0.00 | 91 | 995.7 |
| 20260503221541 | 2 | 15 | 12.9 | 27.4 | 0.00 | 0.00 | 0.00 | 91 | 996.0 |
| 20260503220037 | 2 | 39 | 14.5 | 25.7 | 0.00 | 0.00 | 0.00 | 91 | 996.2 |
| 20260503214542 | 2 | 42 | 8.0 | 22.5 | 0.00 | 0.00 | 0.00 | 90 | 997.4 |
| 20260503213033 | 1 | 40 | 12.9 | 20.9 | 0.00 | 0.00 | 0.00 | 90 | 997.9 |
| 20260503211523 | 1 | 45 | 11.3 | 22.5 | 0.00 | 0.00 | 0.00 | 89 | 998.8 |
| 20260503210021 | 1 | 47 | 11.3 | 27.4 | 0.00 | 0.00 | 0.00 | 89 | 999.0 |
| 20260503204526 | 1 | 44 | 8.0 | 25.7 | 0.00 | 0.00 | 0.00 | 88 | 1000.0 |
| 20260503203016 | 2 | 37 | 9.7 | 27.4 | 0.00 | 0.00 | 0.00 | 88 | 1000.3 |
| 20260503201511 | 2 | 28 | 9.7 | 19.3 | 0.00 | 0.00 | 0.00 | 87 | 1001.4 |
| 20260503200008 | 2 | 25 | 9.7 | 25.7 | 0.00 | 0.00 | 0.00 | 86 | 1002.4 |
| 20260503194504 | 2 | 40 | 11.3 | 20.9 | 0.00 | 0.00 | 0.00 | 86 | 1003.2 |
| 20260503193004 | 2 | 21 | 8.0 | 29.0 | 0.00 | 0.00 | 0.00 | 85 | 1003.6 |
| 20260503191612 | 3 | 29 | 11.3 | 22.5 | 0.00 | 0.00 | 0.00 | 84 | 1004.6 |
| 20260503190058 | 3 | 28 | 8.0 | 25.7 | 0.00 | 0.00 | 0.00 | 83 | 1005.7 |
| 20260503184553 | 3 | 38 | 11.3 | 25.7 | 0.00 | 0.00 | 0.00 | 82 | 1005.9 |
| 20260503183057 | 4 | 44 | 6.4 | 20.9 | 0.00 | 0.00 | 0.00 | 80 | 1006.5 |
| 20260503181559 | 5 | 34 | 14.5 | 25.7 | 0.00 | 0.00 | 0.00 | 79 | 1006.7 |
| 20260503180051 | 6 | 39 | 9.7 | 24.1 | 0.00 | 0.00 | 0.00 | 77 | 1007.0 |
| 20260503174553 | 6 | 34 | 16.1 | 25.7 | 0.00 | 0.00 | 0.00 | 74 | 1007.5 |
| 20260503173046 | 7 | 49 | 8.0 | 19.3 | 0.00 | 0.00 | 0.00 | 71 | 1008.0 |
| 20260503171542 | 8 | 15 | 6.4 | 9.7 | 0.00 | 0.00 | 0.00 | 70 | 1008.1 |